Theta_e
325 336 335 336 338 343 348 347 343 347 347 344 343 340 342 340 348 357 342 342 344 344 325 328 332 334 333 332 332 330 328 328 328 327 326 326 325 326 328 329 332 333 331 320 315 316 317 317 318
327 333 333 334 339 341 347 343 347 345 343 344 344 344 342 342 346 344 339 340 346 343 326 325 328 329 328 327 328 328 328 328 327 327 327 326 326 328 329 332 332 322 316 315 317 317 318 320 323
333 333 333 334 337 338 345 342 342 345 345 344 344 345 340 342 342 344 340 344 347 341 327 325 325 325 326 327 328 329 329 328 327 327 326 326 326 328 332 332 321 315 315 317 317 318 320 324 326
333 332 333 335 334 335 342 342 341 341 342 343 343 343 343 340 343 345 341 346 347 342 338 326 325 325 326 328 329 329 329 328 328 327 326 326 327 329 331 324 315 316 317 317 317 319 322 324 325
330 332 333 335 334 334 337 339 338 340 340 341 343 347 347 345 344 340 339 346 345 342 341 329 328 327 327 328 329 330 330 329 328 327 326 326 327 329 329 320 316 317 317 317 319 320 322 322 325
331 332 333 334 336 334 335 339 338 339 340 342 342 344 348 344 340 337 340 345 344 343 343 333 330 330 330 330 330 330 331 330 329 328 327 326 327 328 327 319 317 317 317 318 320 321 323 325 328
331 332 333 334 335 336 336 334 335 337 338 342 341 347 342 345 344 340 340 343 344 345 344 337 332 332 332 332 332 331 331 331 330 329 327 327 327 328 325 319 317 317 318 319 320 322 326 328 330
329 331 331 332 334 335 333 332 335 336 338 342 340 345 338 340 344 341 341 342 344 346 346 334 333 334 334 334 334 332 331 330 329 329 327 327 327 327 323 321 319 319 319 319 320 323 327 329 328
328 329 330 332 334 335 333 332 334 336 335 339 342 343 347 347 342 340 341 341 340 342 346 342 342 338 335 337 334 332 330 330 329 328 327 327 327 328 338 335 326 326 326 325 325 327 328 330 331
326 328 329 331 334 336 333 331 331 332 336 337 339 340 346 342 340 340 338 338 337 338 345 343 342 343 343 344 342 338 330 328 328 327 331 335 331 337 341 342 340 334 332 323 326 330 333 334 334
325 326 328 329 330 333 333 331 330 331 336 334 332 340 343 342 339 338 336 337 337 337 340 342 341 342 341 341 342 342 336 342 340 341 342 342 339 337 338 337 334 338 337 336 337 336 335 336 334
325 326 326 327 328 329 332 331 331 330 334 333 339 341 344 342 339 337 337 336 336 336 337 339 342 343 341 340 342 344 342 343 343 343 342 338 338 340 338 338 338 339 337 338 336 336 335 334 334
324 325 325 326 327 327 329 331 331 330 330 335 339 345 344 341 340 336 336 335 334 336 337 337 340 341 340 341 340 340 341 342 342 341 341 338 338 333 337 336 336 337 337 336 335 336 334 333 334
324 324 325 324 326 327 328 330 330 330 330 332 335 339 343 342 339 337 337 337 336 336 336 335 340 338 335 341 341 340 341 341 340 339 339 340 336 335 337 339 339 334 335 333 334 333 333 334 331
324 324 325 325 325 326 327 330 331 331 329 331 334 335 341 343 339 338 337 337 335 335 335 335 337 338 331 330 337 342 341 340 340 338 339 340 339 335 338 338 338 337 338 337 333 334 334 330 329
326 325 324 326 326 325 326 328 330 330 331 331 331 336 337 343 342 339 337 337 337 338 338 337 337 339 331 332 332 335 339 341 339 339 340 340 340 338 336 333 335 338 338 334 334 333 329 329 328
325 325 326 326 328 327 327 328 330 330 332 332 330 331 336 339 343 341 339 339 340 341 342 340 341 342 339 333 336 336 343 341 341 340 342 343 341 339 338 336 338 338 336 334 333 329 329 328 323
325 327 327 326 328 328 328 328 331 330 331 330 330 329 329 337 342 344 342 341 340 342 343 345 346 344 345 344 339 344 342 343 342 342 343 342 341 339 336 335 336 336 334 333 330 330 328 323 323
325 326 327 328 328 327 327 328 329 328 329 329 329 330 330 329 337 341 344 342 341 342 345 349 349 347 351 347 347 345 345 343 344 343 343 342 340 338 336 336 335 335 332 330 330 325 325 323 318
325 325 326 326 327 327 326 326 327 328 328 327 328 329 330 330 331 341 343 345 343 344 346 348 351 352 350 351 350 350 347 345 345 343 342 341 340 337 337 335 334 333 331 329 324 324 324 318 314
325 326 326 326 327 327 327 326 328 328 328 328 329 329 330 332 332 342 343 346 346 348 349 352 350 354 353 352 352 350 348 345 344 343 342 341 337 336 334 334 332 329 327 322 323 320 316 314 312
324 325 325 325 325 325 326 326 331 330 330 331 329 330 333 333 337 345 349 349 349 349 349 349 350 353 355 353 352 350 347 346 345 344 342 338 336 334 333 331 328 323 319 315 315 316 314 313 316
324 324 325 326 326 326 326 327 327 330 331 331 330 331 334 334 340 349 351 352 353 353 352 352 352 351 352 352 350 349 347 346 345 343 341 339 337 333 330 326 321 319 316 314 312 312 315 313 315
325 325 325 326 326 327 326 327 327 328 331 332 333 336 338 338 338 342 348 350 350 352 352 353 353 352 352 350 349 348 345 347 345 342 340 339 334 328 324 321 319 317 312 314 313 312 312 314 311
326 326 325 328 328 328 329 327 329 331 331 331 331 331 335 337 338 341 347 349 350 350 352 352 350 349 350 349 347 346 346 346 343 342 338 333 330 325 323 322 319 313 311 311 311 312 311 312 313
327 327 327 331 330 329 331 330 329 330 330 329 330 329 329 330 331 338 346 349 349 348 349 351 348 347 346 346 346 345 348 346 342 339 334 331 326 324 322 320 316 312 313 314 313 313 313 312 313
325 325 327 330 328 328 328 329 331 332 330 329 329 328 331 331 333 334 347 349 346 347 349 349 347 345 345 346 346 344 343 340 338 333 330 326 324 321 320 317 313 313 314 314 314 313 313 313 313
323 324 325 327 329 330 328 328 334 333 333 330 330 330 330 330 339 339 347 347 346 347 349 348 347 345 342 342 342 343 340 337 332 328 323 323 323 321 317 314 315 316 315 315 314 314 313 313 312
325 325 324 327 328 330 331 331 331 333 333 334 331 328 328 330 342 341 344 346 347 348 348 347 346 344 340 340 339 337 336 331 327 324 323 322 321 318 316 316 316 315 315 314 314 313 313 313 313
326 326 328 327 330 331 332 330 331 332 330 329 328 328 328 328 337 341 345 347 346 348 347 345 344 342 339 338 335 332 328 327 324 323 323 321 319 317 317 317 316 315 315 314 313 312 312 312 312
Wind_Speed
17 13 14 12 6 8 7 8 25 17 7 7 9 11 8 22 12 5 18 14 17 17 20 20 18 16 14 13 12 11 10 9 8 6 6 6 5 5 4 4 4 3 3 3 4 5 4 4 5
20 12 16 12 10 13 5 10 17 10 12 4 5 4 12 17 16 17 14 17 17 15 21 20 18 16 15 14 12 11 10 8 6 5 5 4 4 3 3 2 1 0 2 4 4 3 2 3 5
16 11 15 6 14 9 7 8 25 2 6 4 7 5 8 8 9 12 16 21 17 14 21 19 18 16 15 14 12 11 9 7 5 4 3 2 2 1 0 1 2 2 2 2 1 1 3 5 6
12 15 16 11 20 8 9 19 23 6 6 5 10 12 14 9 7 10 16 23 17 18 19 20 18 16 15 13 12 10 9 7 5 4 3 2 2 1 2 3 2 3 3 2 2 3 5 7 8
18 18 13 18 20 15 9 21 7 5 6 15 7 20 13 12 12 15 22 21 18 18 17 19 17 16 14 13 11 11 9 7 5 3 3 3 2 3 4 4 4 4 4 4 5 6 8 10 12
19 22 15 13 12 3 4 12 6 10 9 5 8 9 19 13 14 15 18 18 18 22 14 15 17 16 14 12 11 10 8 7 6 4 4 3 4 5 5 5 5 6 6 6 8 9 11 13 14
18 14 19 20 9 18 12 4 5 10 13 13 5 16 21 5 12 13 14 14 22 17 14 16 18 17 14 12 11 10 9 8 6 5 4 5 5 6 7 7 7 7 8 9 11 12 13 15 17
22 14 22 20 14 9 3 6 6 2 6 7 3 7 5 23 13 13 15 15 18 18 13 13 18 16 14 13 12 10 10 8 6 7 6 6 6 6 7 9 9 10 11 12 13 14 15 18 20
21 12 14 21 13 8 2 9 8 1 9 6 5 13 20 17 15 14 16 15 14 16 15 12 14 14 14 12 12 10 9 9 9 8 7 7 7 4 10 8 8 12 14 14 14 15 18 19 16
21 13 20 21 10 9 9 2 4 1 6 24 27 33 14 13 13 17 15 16 16 15 19 14 17 14 11 14 9 7 10 10 10 10 7 6 1 4 4 9 12 16 17 15 15 15 13 13 11
20 17 19 26 25 11 15 11 13 3 11 14 25 33 10 14 13 15 15 16 16 15 16 18 17 17 13 17 15 10 7 4 4 3 6 6 5 12 13 14 12 11 8 12 8 13 14 9 17
17 20 23 26 29 20 12 13 14 13 8 11 15 19 17 14 13 15 14 15 16 16 15 14 17 16 15 13 11 10 5 10 7 10 11 15 12 14 13 9 12 7 13 5 12 9 17 25 26
14 16 20 22 23 22 18 18 11 18 4 9 9 17 13 14 13 14 14 15 16 18 18 16 18 21 22 17 14 14 10 14 10 12 13 11 10 8 12 11 15 15 16 14 12 19 24 26 27
16 16 15 19 25 18 19 21 20 19 13 6 6 8 13 13 13 14 14 16 17 20 21 19 19 19 22 25 16 17 15 13 17 13 16 16 15 13 14 14 19 18 19 20 21 23 25 26 22
16 14 17 16 19 19 22 16 16 18 21 9 14 12 13 16 15 16 17 17 20 21 20 23 20 19 20 23 24 21 18 19 13 15 13 16 14 13 16 15 18 11 17 21 23 24 26 19 17
12 13 15 17 21 19 20 18 14 23 26 15 14 21 18 20 20 20 19 21 22 23 24 25 21 21 21 21 21 21 19 13 15 12 15 21 17 14 19 15 12 15 20 22 22 23 13 14 20
15 13 16 16 13 13 19 15 16 24 21 15 13 16 25 23 25 27 25 24 26 25 26 28 25 23 21 23 20 17 13 18 14 15 16 18 16 13 14 7 14 23 20 21 19 10 16 22 24
15 12 10 7 8 11 10 15 12 17 22 16 15 16 18 27 31 31 31 29 28 28 28 26 27 26 24 21 20 16 16 18 16 15 15 18 19 18 18 11 19 20 18 17 11 16 23 24 18
19 13 15 15 10 8 8 12 15 21 21 20 19 19 18 21 30 33 33 33 32 31 30 27 28 26 21 24 23 21 19 19 13 16 19 24 20 18 17 11 17 16 12 9 18 23 19 19 19
12 11 14 15 13 11 12 16 18 15 21 25 22 23 21 18 13 36 33 32 31 32 31 32 26 27 28 24 21 15 18 19 16 19 22 23 20 13 13 11 14 11 11 16 15 17 21 23 15
12 13 15 16 16 13 11 17 19 20 23 22 24 16 11 9 17 35 32 32 29 26 26 27 32 25 26 25 22 23 18 18 21 22 23 18 14 14 11 13 10 13 16 11 17 19 18 15 18
15 14 16 15 9 13 17 15 14 14 18 15 11 20 16 10 13 28 26 25 26 25 22 23 25 30 24 28 22 26 27 23 19 20 15 13 11 10 7 9 11 16 16 14 13 12 17 15 14
13 16 15 13 13 16 18 12 15 13 10 11 10 15 11 10 10 17 17 15 15 17 19 21 21 24 27 25 22 24 21 19 15 16 16 18 15 10 11 13 14 14 15 14 16 13 11 13 10
13 14 12 13 13 13 18 16 15 14 7 10 6 8 10 5 5 11 20 16 17 17 19 19 22 23 23 20 23 20 20 18 20 19 19 19 14 9 11 12 13 15 14 10 12 12 10 13 13
8 10 9 12 12 13 17 15 13 12 5 1 2 4 9 13 9 14 11 9 14 16 17 18 18 19 20 19 21 18 16 21 20 21 13 8 10 11 13 16 16 14 13 13 10 11 12 9 8
11 9 8 15 14 16 20 4 4 1 6 4 4 4 7 12 8 12 22 18 15 16 19 16 18 20 19 19 21 24 24 24 19 13 11 17 11 15 18 17 15 13 10 10 12 13 9 8 15
12 13 15 13 12 14 14 20 2 9 6 3 6 13 3 12 7 7 13 14 12 16 19 20 19 19 22 21 20 20 17 14 14 19 19 16 16 14 14 14 13 10 10 11 11 12 12 14 15
14 11 11 7 11 14 13 15 10 19 14 0 1 5 7 8 9 5 10 9 12 17 18 17 15 15 20 19 19 18 19 21 20 15 14 13 13 12 13 12 9 10 11 12 13 14 13 14 17
7 11 10 10 8 10 10 4 13 9 11 7 9 11 16 7 11 9 12 11 13 18 20 18 16 16 15 16 15 17 19 19 17 15 13 12 12 10 9 8 8 11 13 14 15 17 17 18 17
13 13 10 8 9 9 11 13 14 7 7 8 13 18 17 21 3 9 12 14 17 20 18 19 18 14 16 17 17 17 15 16 13 10 9 9 9 7 7 9 10 13 15 15 17 17 15 17 19
Wind_Direction
339 342 349 288 251 229 112 273 287 106 79 60 41 47 53 53 38 78 139 145 166 169 161 159 159 156 150 147 148 142 133 126 123 124 115 115 117 123 118 109 108 118 129 129 122 114 104 86 63
336 301 277 268 254 281 60 292 354 26 46 345 140 123 83 72 77 118 136 146 165 171 160 159 159 155 149 147 145 143 137 135 136 132 130 132 128 130 107 109 101 160 140 127 125 117 78 42 23
327 335 288 249 250 255 161 102 267 357 65 5 19 52 70 94 85 127 149 147 158 171 161 158 157 154 152 149 147 144 145 146 144 143 138 146 147 131 78 307 272 168 160 175 181 26 358 353 352
317 310 240 253 272 48 136 206 218 19 73 37 50 89 85 89 112 141 142 150 140 148 162 159 157 157 158 155 150 151 160 159 161 175 175 190 200 242 267 272 219 214 233 242 276 311 321 323 325
291 269 277 272 299 355 38 16 9 348 91 33 357 106 112 99 110 127 143 154 147 148 175 161 161 161 162 160 161 167 171 173 180 193 210 224 234 256 277 266 238 239 246 264 285 299 307 315 319
286 275 271 280 300 309 81 139 321 1 14 106 50 95 98 109 118 135 147 155 160 162 180 173 167 169 167 170 172 176 183 189 198 211 227 243 254 263 280 265 255 257 268 278 286 296 306 312 315
268 278 284 292 306 289 111 23 335 359 341 42 50 78 28 63 136 145 157 156 156 165 190 181 177 176 175 180 185 187 194 204 212 227 240 254 262 276 282 274 268 270 276 283 289 296 303 305 309
264 276 285 279 270 202 100 280 123 183 326 57 338 105 189 161 154 152 156 160 160 154 174 179 182 184 187 190 196 197 206 217 228 238 249 261 268 280 303 282 271 274 280 283 289 295 299 302 306
263 273 267 275 316 330 293 245 171 38 284 134 65 65 119 141 146 148 149 167 164 167 165 160 173 189 191 202 202 209 221 228 236 243 252 262 279 283 324 284 281 291 292 289 291 297 306 314 317
247 249 261 268 285 269 287 210 343 282 338 37 0 328 126 144 153 157 162 173 170 179 167 169 171 187 176 200 227 253 243 236 240 243 255 278 67 293 239 276 289 305 296 290 293 293 312 326 314
236 248 262 274 291 304 292 322 296 277 69 106 127 260 242 152 160 162 172 175 175 178 177 174 174 176 180 195 220 263 236 275 276 278 250 294 244 243 265 282 287 289 311 321 302 310 325 299 267
249 244 262 271 288 303 300 282 298 311 112 155 172 194 203 165 169 172 174 174 174 175 181 176 165 178 189 199 195 223 209 225 240 253 233 228 225 211 222 234 277 289 315 264 284 296 259 266 281
250 250 265 264 269 277 292 282 284 284 265 142 121 158 165 178 175 174 174 171 177 172 180 188 191 202 193 182 205 198 208 206 214 228 252 254 234 225 243 245 235 233 239 240 265 258 278 294 304
286 275 264 261 273 266 258 261 249 252 252 166 171 181 175 182 184 176 179 169 174 172 177 184 196 210 195 193 187 205 201 214 216 222 240 259 230 224 234 253 252 252 258 263 266 286 305 309 311
262 273 276 263 264 264 262 264 265 260 270 208 182 195 197 178 189 183 181 178 169 170 180 191 194 214 202 199 199 203 214 213 230 212 236 241 254 225 231 228 252 272 255 269 286 307 310 316 317
266 269 265 262 227 231 253 260 272 250 257 220 220 188 196 184 189 189 188 185 183 180 188 192 191 215 207 211 209 211 205 217 211 228 229 245 252 230 251 240 270 250 260 285 303 313 318 292 282
248 250 260 246 242 208 222 247 264 264 227 240 222 234 190 195 189 194 193 192 194 191 197 196 189 211 217 208 219 220 210 218 210 223 229 250 258 233 253 239 242 257 280 296 307 301 273 287 300
250 250 261 258 164 190 239 262 243 272 269 233 229 244 266 197 191 194 192 195 198 197 206 207 199 194 225 230 223 224 210 229 217 226 222 242 238 245 260 242 261 276 286 302 291 282 287 301 312
290 311 308 314 339 322 298 292 295 292 287 277 267 247 228 261 205 191 192 194 198 205 203 212 209 207 205 220 232 212 221 218 217 218 223 233 242 263 268 246 271 293 305 306 275 295 295 298 310
282 290 277 286 282 279 291 292 287 269 261 257 262 266 257 238 224 185 186 190 194 200 207 209 210 215 212 216 220 220 214 219 210 225 229 242 257 246 262 260 263 285 276 276 299 280 285 303 311
271 270 282 292 308 308 278 270 262 257 257 259 257 255 280 278 275 167 181 188 188 194 200 209 213 216 221 215 217 213 206 208 204 218 233 253 234 238 249 270 267 261 269 284 273 281 294 295 300
272 255 255 267 292 279 281 291 276 261 221 228 233 236 218 226 190 157 164 178 192 203 209 217 223 214 221 219 213 217 208 203 207 235 256 246 240 244 254 254 259 279 291 293 284 273 283 294 295
266 286 302 310 295 282 279 274 278 290 203 201 233 240 134 174 156 156 169 186 205 210 213 217 225 222 219 224 204 213 199 204 208 225 228 235 250 236 218 247 269 287 296 280 283 298 296 297 299
259 279 275 282 268 267 262 255 272 278 307 215 167 126 122 168 189 186 174 189 198 201 206 208 215 217 216 214 196 213 190 201 195 211 218 234 251 244 250 261 285 296 298 295 286 281 292 279 294
255 266 262 259 237 245 245 237 244 265 46 71 5 48 151 177 198 177 181 167 180 198 203 204 214 204 198 199 195 197 195 198 201 215 229 211 213 253 269 281 292 296 285 287 296 293 309 324 306
244 246 256 302 304 322 320 253 250 52 331 352 343 346 302 294 297 219 180 183 200 211 200 198 204 193 183 186 189 186 200 205 218 221 207 207 209 229 249 274 288 301 304 300 300 309 296 295 280
250 263 262 269 290 291 292 297 353 311 208 269 275 262 214 252 222 291 152 168 184 197 196 204 215 214 195 192 193 198 208 205 201 201 207 210 221 243 265 285 295 295 297 299 296 305 297 299 291
265 277 265 237 258 271 273 287 31 29 3 205 304 33 335 318 124 166 163 184 186 196 194 198 222 232 206 200 197 194 191 202 208 216 205 232 242 251 263 285 297 294 294 290 287 289 291 288 292
235 225 237 272 299 308 309 347 36 42 185 249 331 340 329 326 146 171 179 195 193 190 190 191 207 213 204 197 199 200 200 208 214 214 222 236 254 273 291 304 282 283 287 289 290 291 295 302 301
243 273 273 228 248 241 257 274 301 319 315 357 338 321 308 337 263 166 181 187 187 193 192 194 196 201 204 199 198 207 201 209 214 224 236 255 271 295 297 285 286 287 285 288 289 292 289 290 293